Showing default

UM5-EOSAT, 60555

Orbit data source: Space-Track

UM5-EOSAT, 60555 is a Moroccan payload satellite in SSO that was launched on Fri, 16 Aug 2024 UTC via an FALCON 9 launch vehicle from the Air Force Western Test Range (AFWTR). Payload-class satellites include a variety of spacecraft equipped with specific instruments for various scientific and technological missions. These include communications satellites like Starlink; space stations such as the ISS; scientific satellites like the Hubble; Earth observation satellites from companies like Planet Labs, Umbra, and HawkEye 360; GPS; miniature CubeSats for education and research; and military/defense satellites.

Loading next visibility...
Identifier
60555, 2024-149CR
Orbit
SSO
Country
Flag of MAMA
Related business
Manufacturer
UM5R
Mission
Operational Amateur Imaging
Bus & Motor
CUBESAT 3U, Unknown motor
Mass
5 kg wet, 5 kg dry
Launch date (UTC)
2024-08-16 (1 year ago)
Launch vehicle
FALCON 9
Launch site
Air Force Western Test Range (AFWTR)
Object type
Payload
Rocket body
Debris
Shape & HBR
Box, 0.1 m
Radar Cross Section
0.080 m², Small (<0.1 m²)

Expand to show TLE details & history
Last TLE update: 22 hours ago

TLE from 22 hours ago
0 UM5-EOSAT
1 60555U 24149CR  26034.18516532  .00004282  00000-0  34360-3 0  9992
2 60555  97.7016 114.4903 0008503 198.9085 161.1825 15.00586393 80115
Epoch: 2026-02-03T04:26Z
TLE epoch observation values (Epoch: 2026-02-03T04:26:38.283Z)
Latitude
0.00005°
Longitude
-85.53895°
Altitude
573.732 km
Speed
7.571 km/s
True Right ascension
07h 37m 57s
True Declination
0° 00' 00"
Sunlit
Object was in full shadow at epoch
Visualization orbit readout
Latitude
Unknown
Longitude
Unknown
Altitude
Unknown
Speed
Unknown
Apparent Right ascension
Unknown
Apparent Declination
Unknown
Sunlit
N/A
Visualization observer readout
Local Sidereal Time
04:25:59
Azimuth
Unknown
Elevation
Unknown
Doppler factor
Unknown
Orbital elements
Apogee altitude
567.993 km
Perigee altitude
556.19 km
Semi-major axis
6,940.228 km
Eccentricity
0.00085
Inclination
97.7016°
RAAN
114.4903°
Arg. of periapsis
198.9085°
True anomaly
161.2139°
Mean anomaly
161.1825°
Eccentric anomaly
161.1982°
Mean motion
3.7539 °/min
Orbital period
95.9 mins
BSTAR
0.0003436
Loading maneuver chart data...
Computing Atmospheric mass density...
Loading historical data...
Loading historical data...
Loading historical data...
Loading historical data...
Loading historical data...
Loading historical data...
Loading historical data...

Documentation

Showing up to 5 results
|